sat.trackr.live / text

‹ back to catalog

ORBCOMM FM116

NORAD 41189 · 2015-081L

PAYLOAD ACTIVE UNKNOWN

§ Identity

Operator
Country
ORB
Launch date
2015-12-22
Launch site
AFETR
Launch vehicle
Mass (kg)
RCS (m²)
0.55

Purposes: comms

External: N2YO · Heavens-Above · Gunter

§ Orbital elements

Epoch: 2026-09-20T03:39:04.792320Z

Period
98.70 min
Inclination
47.0016°
Eccentricity
0.0000736
Mean motion
14.58964253 rev/d
Perigee alt
696.0 km
Apogee alt
697.0 km
Semi-major
7,074.7 km
B*
1.0014e-4
RAAN
181.5736°
Arg perigee
151.8603°
Mean anomaly
208.2323°
Rev number
57,280

§ Raw data

ORBCOMM FM1161 41189U 15081L   26263.15213880  .00000303  00000+0  10014-3 0  99992 41189  47.0016 181.5736 0000736 151.8603 208.2323 14.58964253572803

JSON: /api/v1/satellites/41189 · /tle

For live sub-satellite position, see the globe view (requires WebGL).

§ Visibility from observer

Set your observer location to see the next 7 days of passes ≥ 10°. The values pass through the URL so the page stays shareable.

No JS? Fill the form by hand. The geolocation button needs JavaScript.

§ Radio — SatNOGS DB

ModeDescriptionDownlinkUplink
FM Telemetry 137.663 MHz
FM Telemetry 137.800 MHz

2 transmitters · refreshed weekly from db.satnogs.org